Terug naar catalogus

STARLINK-6059

ActiefCommunicatieVLEO
NORAD 56814·PAYLOAD·🇺🇸 United States

Gelanceerd May 31, 2023 vanaf Vandenberg Space Force Base

Loading…

Volgende Passages (komende 24 uur)

TLE

VersSource: CelesTrak SupGP

Epoch: Sep 14, 2026, 22:24 UTC

1 56814C 23078AZ  26257.93381944 -.00001879  00000+0 -15740-3 0  2570
2 56814  70.0011 227.1741 0003357 267.2684 332.6760 14.98340959    12

Volg STARLINK-6059 in realtime met AllMySat

Download on the App Store